Location: Marion Hill
(40.7303°N, 80.2959°W)
Time: 22:12:31
(UTC+00:00)

ATLAS 2AS CENTAUR R/B - Pass Details

Date: 29 October 2020
Orbit: 939 x 1273 km, 63.7° (Epoch: 23 November)

Event Time Altitude Azimuth Distance (km) Brightness Sun altitude
Rises 23:36:45 0° 328° (NNW) 4,161 6.2 -15.0°
Reaches altitude 10° 23:40:12 10° 340° (NNW) 3,148 5.3 -15.6°
Maximum altitude 23:46:19 26° 35° (NE) 2,089 3.9 -16.8°
Enters shadow 23:48:38 22° 63° (ENE) 2,231 3.8 -17.2°
